Honolulu, HI

4:44 PM HST on April 19, 2018 (GMT -1000)
Honolulu International

Weather History for PHNL - December, 2013

Change the Weather History Date:

Sunday, December 15, 2013

  Actual Average Record
Temperature  
Mean Temperature 71 °F 75 °F  
Max Temperature 76 °F 81 °F 89 °F (1995)
Min Temperature 65 °F 68 °F 58 °F (1989)
Degree Days  
Heating Degree Days 0 0  
Month to date heating degree days 0 0  
Since 1 July heating degree days 0 0  
Cooling Degree Days 6 10  
Month to date cooling degree days 169 157  
Year to date cooling degree days 4306 4483  
Growing Degree Days 20 (Base 50)    
Moisture  
Dew Point 66 °F    
Average Humidity 83    
Maximum Humidity 97    
Minimum Humidity 69    
Precipitation  
Precipitation 2.06 in 0.11 in 2.06 in (2013)
Month to date precipitation 3.53 1.40  
Year to date precipitation 16.07 15.26  
Snow  
Snow 0.00 in - - ()
Month to date snowfall 0.0  
Since 1 July snowfall 0.0  
Snow Depth 0.00 in    
Sea Level Pressure  
Sea Level Pressure 29.93 in    
Wind  
Wind Speed 4 mph (NNW)    
Max Wind Speed 24 mph    
Max Gust Speed 28 mph    
Visibility 7 miles    
Events Fog , Rain , Thunderstorm    
T = Trace of Precipitation, MM = Missing Value Source: NWS Daily Summary

Daily Weather History Graph

Daily Weather History Graph

Search for Another Location

Airport or City:

Astronomy

Dec. 15, 2013 Rise Set
Actual Time 7:01 AM HST 5:52 PM HST
Civil Twilight 6:37 AM HST 6:16 PM HST
Nautical Twilight 6:09 AM HST 6:44 PM HST
Astronomical Twilight 5:42 AM HST 7:11 PM HST
Moon 4:57 PM HST (12/15) 5:36 AM HST (12/15)
Length of Visible Light 11h 39m
Length of Day
10h 50m
Waxing Gibbous, 98% of the Moon is Illuminated
Dec 15
Waxing Gibbous
Dec 16
Full
Dec 25
Last Quarter
Jan 1
New
Jan 7
First Quarter

Hourly Weather History & Observations

Time (HST) Temp. Dew Point Humidity Pressure Visibility Wind Dir Wind Speed Gust Speed Precip Events Conditions
12:53 AM 72.0 °F 64.9 °F 78% 29.93 in 10.0 mi North 3.5 mph - N/A   Mostly Cloudy
1:53 AM 72.0 °F 64.9 °F 78% 29.91 in 10.0 mi Variable 3.5 mph - N/A   Scattered Clouds
2:29 AM 73.4 °F 66.2 °F 78% 29.90 in 10.0 mi NW 3.5 mph - N/A   Mostly Cloudy
2:53 AM 72.0 °F 66.0 °F 81% 29.90 in 10.0 mi WNW 4.6 mph - N/A   Mostly Cloudy
3:11 AM 71.6 °F 66.2 °F 83% 29.90 in 10.0 mi NW 4.6 mph - N/A   Mostly Cloudy
3:53 AM 71.1 °F 66.0 °F 84% 29.89 in 10.0 mi Calm Calm - N/A   Mostly Cloudy
4:53 AM 71.1 °F 66.0 °F 84% 29.89 in 10.0 mi Calm Calm - N/A   Mostly Cloudy
5:19 AM 71.6 °F 66.2 °F 83% 29.89 in 10.0 mi Calm Calm - N/A   Mostly Cloudy
5:32 AM 71.6 °F 66.2 °F 83% 29.89 in 10.0 mi North 3.5 mph - N/A   Mostly Cloudy
5:53 AM 72.0 °F 66.9 °F 84% 29.90 in 10.0 mi Calm Calm - N/A   Overcast
6:37 AM 71.6 °F 66.2 °F 83% 29.91 in 10.0 mi North 3.5 mph - N/A   Mostly Cloudy
6:53 AM 72.0 °F 66.9 °F 84% 29.91 in 10.0 mi Calm Calm - N/A   Mostly Cloudy
7:53 AM 72.0 °F 68.0 °F 87% 29.93 in 7.0 mi West 5.8 mph - 0.00 in Rain Light Rain
8:00 AM 71.6 °F 68.0 °F 88% 29.94 in 6.0 mi NW 5.8 mph - 0.00 in Rain Light Rain
8:08 AM 71.6 °F 68.0 °F 88% 29.94 in 10.0 mi NNW 6.9 mph - 0.00 in   Overcast
8:53 AM 71.1 °F 68.0 °F 90% 29.97 in 6.0 mi NNW 9.2 mph - 0.00 in Rain Light Rain
9:04 AM 71.6 °F 68.0 °F 88% 29.97 in 5.0 mi NNW 8.1 mph - 0.00 in Rain , Thunderstorm Thunderstorms and Rain
9:17 AM 69.8 °F 68.0 °F 94% 29.98 in 2.0 mi NNW 9.2 mph - 0.04 in Rain , Thunderstorm Heavy Thunderstorms and Rain
9:40 AM 69.8 °F 68.0 °F 94% 29.99 in 2.5 mi NW 8.1 mph - 0.08 in Rain Rain
9:53 AM 70.0 °F 68.0 °F 93% 29.99 in 2.0 mi North 9.2 mph - 0.10 in Rain Light Rain
9:56 AM 69.8 °F 68.0 °F 94% 29.99 in 3.0 mi North 8.1 mph - 0.00 in Rain Light Rain
10:37 AM 69.8 °F 68.0 °F 94% 30.00 in 2.0 mi WNW 10.4 mph - 0.04 in Rain , Thunderstorm Thunderstorms and Rain
10:44 AM 69.8 °F 68.0 °F 94% 30.00 in 1.0 mi WNW 10.4 mph - 0.14 in Rain , Thunderstorm Heavy Thunderstorms and Rain
10:51 AM 69.8 °F 68.0 °F 94% 30.00 in 0.5 mi NW 15.0 mph - 0.55 in Fog , Rain , Thunderstorm Heavy Thunderstorms and Rain
10:53 AM 69.1 °F 68.0 °F 96% 30.00 in 0.5 mi NNW 13.8 mph - 0.64 in Fog , Rain , Thunderstorm Heavy Thunderstorms and Rain
11:00 AM 68.0 °F 66.2 °F 94% 30.00 in 1.0 mi NNW 15.0 mph - 0.12 in Rain , Thunderstorm Heavy Thunderstorms and Rain
11:05 AM 66.2 °F 66.2 °F 100% 30.01 in 0.5 mi NW 18.4 mph 27.6 mph 0.27 in Rain , Thunderstorm Heavy Thunderstorms and Rain
11:31 AM 66.2 °F 64.4 °F 94% 30.00 in 1.5 mi NNW 17.3 mph 27.6 mph 0.90 in Rain , Thunderstorm Heavy Thunderstorms and Rain
11:53 AM 66.0 °F 64.0 °F 93% 30.01 in 2.5 mi NNW 15.0 mph - 1.28 in Rain Rain
12:00 PM 66.2 °F 64.4 °F 94% 30.00 in 4.0 mi North 12.7 mph - 0.01 in Rain Rain
12:53 PM 71.1 °F 64.0 °F 78% 29.91 in 10.0 mi Variable 4.6 mph - 0.04 in Rain Rain
1:53 PM 72.0 °F 64.9 °F 78% 29.87 in 10.0 mi East 5.8 mph - 0.00 in   Mostly Cloudy
2:53 PM 73.0 °F 64.9 °F 76% 29.84 in 10.0 mi NNE 3.5 mph - 0.00 in   Mostly Cloudy
3:53 PM 73.9 °F 64.0 °F 71% 29.85 in 10.0 mi Calm Calm - N/A   Mostly Cloudy
4:53 PM 75.9 °F 64.0 °F 67% 29.86 in 10.0 mi Calm Calm - N/A   Scattered Clouds
5:53 PM 72.0 °F 64.9 °F 78% 29.88 in 10.0 mi ESE 5.8 mph - N/A   Scattered Clouds
6:53 PM 71.1 °F 64.9 °F 81% 29.90 in 10.0 mi ESE 5.8 mph - N/A   Partly Cloudy
7:53 PM 69.1 °F 64.9 °F 87% 29.91 in 10.0 mi North 4.6 mph - N/A   Clear
8:53 PM 68.0 °F 64.0 °F 87% 29.93 in 10.0 mi North 6.9 mph - N/A   Clear
9:53 PM 68.0 °F 64.0 °F 87% 29.94 in 10.0 mi NNW 3.5 mph - N/A   Scattered Clouds
10:53 PM 68.0 °F 63.0 °F 84% 29.95 in 10.0 mi Calm Calm - N/A   Mostly Cloudy
11:53 PM 69.1 °F 63.0 °F 81% 29.93 in 10.0 mi Calm Calm - N/A   Overcast